Regional Weather Roundup
Issued by NWS Kansas City/Pleasant Hill, MO

Home | Current Version | Previous Version | Text Only | Print | Product List | Glossary On
Versions: 1 2 3 4 5 6 7 8 9 10 11 12 13 14 15 16 17 18 19 20 21 22 23 24 25 26 27 28 29 30 31 32 33 34 35 36 37 38 39 40 41 42 43 44 45 46 47 48 49 50
000
ASUS43 KEAX 240910
RWREAX

WEATHER ROUNDUP FOR EASTERN KANSAS AND NORTHWEST MISSOURI
NATIONAL WEATHER SERVICE KANSAS CITY/PLEASANT HILL MO
400 AM CDT TUE APR 24 2018

KSZ040-057-103>105-MOZ028-029-037-043-241000-
...KANSAS CITY METROPOLITAN AREA...

CITY           SKY/WX    TMP DP  RH WIND       PRES   REMARKS
K.C. INTL      CLEAR     50  31  48 N8        30.08R
K.C. DOWNTOWN  CLEAR     49  36  61 CALM      30.07R
LEES SUMMIT    CLEAR     54  31  41 N6        30.07R
OLATHE - IXD   CLEAR     48  36  63 CALM      30.08R
OLATHE - OJC   CLEAR     51  34  52 NW7       30.07R
LAWRENCE       CLEAR     40  36  86 NW8       30.09R WCI  34

$$

MOZ001>008-011>017-020>025-030>033-038>040-044>046-053-054-241000-
...NORTHERN AND CENTRAL MISSOURI...

CITY           SKY/WX    TMP DP  RH WIND       PRES   REMARKS
ST. JOSEPH     CLEAR     36  31  82 N3        30.10R
MOSBY          SUNNY     39  36  87 CALM      30.08R
WARRENSBURG    CLEAR     48  32  53 NW6       30.05R
WHITEMAN AFB   CLEAR     47  33  57 N8        30.00R
CLINTON        CLEAR     48  36  61 NE5       30.04R
SEDALIA        CLEAR     51  36  56 N3        30.04R
WARSAW         NOT AVBL
CHILLICOTHE      N/A     49  30  48 CALM      30.08R
KIRKSVILLE     CLEAR     43  34  70 N3        30.06R

$$

MOZ041-047>049-056>058-063>065-088>090-097-241000-
...EASTERN AND SOUTHERN MISSOURI...

CITY           SKY/WX    TMP DP  RH WIND       PRES   REMARKS
ST. LOUIS INTL CLOUDY    55  54  96 N10       29.98S
SPIRIT OF STL  CLOUDY    57  55  93 N8        29.98S
COLUMBIA       CLEAR     51  48  89 N7        30.02R
JEFFERSON CITY CLEAR     54  49  83 N6        30.02R
ROLLA          CLOUDY    54  51  90 N7        30.00S
OSAGE BEACH    CLEAR     48  47  96 CALM      30.02R
SPRINGFIELD    CLEAR     45  39  79 CALM      30.02R
BRANSON        CLEAR     52  48  87 CALM      30.02R
JOPLIN         CLEAR     47  43  86 CALM      30.05R
WEST PLAINS    MOCLDY    52  50  93 NW5       29.98R

$$

IAZ060-094-KSZ022-034>040-054-083-096-NEZ052-066-093-241000-
...KANSAS...SOUTHEAST NEBRASKA AND IOWA...

CITY           SKY/WX    TMP DP  RH WIND       PRES   REMARKS
TOPEKA         CLEAR     43  40  89 CALM      30.09R
MANHATTAN      CLOUDY    42  36  79 CALM      30.09S
EMPORIA        CLEAR     47  40  76 NW3       30.08R
CHANUTE        CLEAR     44  41  89 NW5       30.07R
WICHITA        PTCLDY    52  44  74 N6        30.07S
OMAHA          PTCLDY    45  37  73 N7        30.12S
LINCOLN        CLEAR     39  32  76 CALM      30.13F
FALLS CITY     CLOUDY    43  31  62 NW6       30.10S
LAMONI         CLEAR     47  30  51 N7        30.09R
DES MOINES     CLEAR     48  34  58 NW6       30.12R

$$




USA.gov is the U.S. government's official web portal to all federal, state and local government web resources and services.